Tracking 29932 objects as of 3-Dec-2024
HD Live streaming from Space Station
objects crossing your sky now

STARLINK-31551

Track STARLINK-31551 now!
10-day predictions
STARLINK-31551 is classified as:


NORAD ID: 59191
Int'l Code: 2024-045P
Perigee: 450.2 km
Apogee: 452.1 km
Inclination: 43.0 °
Period: 93.5 minutes
Semi major axis: 6822 km
RCS: Unknown
Launch date: March 10, 2024
Source: United States (US)
Launch site: AIR FORCE EASTERN TEST RANGE (AFETR)
Your satellite tracking list
Your tracking list is empty




NASA's NSSDC Master Catalog

Two Line Element Set (TLE):
1 59191U 24045P   24337.87248615  .00001173  00000-0  35320-4 0  9999
2 59191  42.9984 189.1971 0001349 250.1571 109.9140 15.40705369 42434
Source of the keplerian elements: AFSPC